Regional Weather Roundup
Issued by NWS Goodland, KS

Home | Current Version | Previous Version | Graphics & Text | Print | Product List | Glossary On
Versions: 1 2 3 4 5 6 7 8 9 10 11 12 13 14 15 16 17 18 19 20 21 22 23 24 25 26 27 28 29 30 31 32 33 34 35 36 37 38 39 40 41 42 43 44 45 46 47 48 49 50
000
ASUS43 KGLD 151359
RWRGLD

GOODLAND FORECAST AREA HOURLY WEATHER ROUNDUP
NATIONAL WEATHER SERVICE GOODLAND KS
800 AM MDT TUE APR 15 2014

...OFFICIAL OBSERVATIONS...

CITY           SKY/WX    TMP DP  RH WIND       PRES   REMARKS
GOODLAND KS    SUNNY     35  18  49 SW17      30.04F
HILL CITY KS   SUNNY     32  21  64 W3        30.12F
IMPERIAL NEB   SUNNY     33  23  66 SW12      30.00F
MCCOOK NEB     SUNNY     33  25  72 SW7       30.06F
AKRON CO       SUNNY     34  22  61 SW14      29.97F
BURLINGTON CO  SUNNY     37  22  54 SW17      30.04F
LIMON CO       SUNNY     31  25  78 N3        30.02F
$$

...UNOFFICIAL OBSERVATIONS...

CITY           SKY/WX    TMP DP  RH WIND       PRES   REMARKS
COLBY KS       SUNNY     36  23  60 S17       30.07F
GOVE KS          N/A     34  32  92 CALM        N/A
LEOTI KS         N/A     36  32  84 CALM        N/A
NORTON KS      SUNNY     30  25  80 SW7       30.08F
SHARON SPRINGS   N/A     34  20  57 S13         N/A
WAKEENEY KS      N/A     34  16  48 MISG        N/A
KIT CARSON CO    N/A     30  20  67 MISG        N/A
$$



USA.gov is the U.S. government's official web portal to all federal, state and local government web resources and services.